GW6932 Weather Reports


time (UTC)temp
C
wind
direction
speed
KPH
gust
KPH
rain 1hr
cm
rain 24hr
cm
rain mn
cm
humidity
%
barometer
mb
20260502170225 21 106 8.0 9.7 0.00 0.00 0.00 52 1021.3
20260502164213 21 58 3.2 9.7 0.00 0.00 0.00 50 1021.4
20260502163708 21 32 6.4 19.3 0.00 0.00 0.00 51 1021.4
20260502163205 20 0 4.8 11.3 0.00 0.00 0.00 56 1021.6
20260502162702 20 56 6.4 11.3 0.00 0.00 0.00 52 1021.4
20260502162158 20 51 3.2 20.9 0.00 0.00 0.00 54 1021.4
20260502161656 20 60 4.8 9.7 0.00 0.00 0.00 56 1021.4
20260502161152 20 61 3.2 14.5 0.00 0.00 0.00 54 1021.6
20260502160650 20 7 4.8 11.3 0.00 0.00 0.00 55 1021.3
20260502160149 20 54 6.4 9.7 0.00 0.00 0.00 56 1021.3
20260502152103 18 225 0.0 9.7 0.00 0.00 0.00 66 1021.1
20260502151600 19 170 3.2 8.0 0.00 0.00 0.00 67 1021.1
20260502151057 18 30 3.2 9.7 0.00 0.00 0.00 67 1021.3
20260502150555 18 155 4.8 6.4 0.00 0.00 0.00 68 1021.1
20260502130440 15 11 3.2 8.0 0.00 0.00 0.00 80 1019.8
20260502123422 12 295 3.2 3.2 0.00 0.00 0.00 91 1019.5
20260502122920 11 42 0.0 4.8 0.00 0.00 0.00 95 1019.3
20260502122415 11 100 0.0 3.2 0.00 0.00 0.00 96 1019.3
20260502121914 11 85 1.6 3.2 0.00 0.00 0.00 97 1019.2
20260502121411 10 21 0.0 3.2 0.00 0.00 0.00 97 1019.1
20260502120908 10 39 0.0 1.6 0.00 0.00 0.00 97 1019.1
20260502120404 10 68 1.6 3.2 0.00 0.00 0.00 97 1019.1
20260502115902 10 351 1.6 1.6 0.00 0.00 0.00 97 1019.2
20260502115359 10 89 0.0 3.2 0.00 0.00 0.00 97 1019.0
20260502114854 10 113 0.0 1.6 0.00 0.00 0.00 97 1019.0
20260502114352 10 52 0.0 1.6 0.00 0.00 0.00 97 1018.9
20260502113849 10 60 0.0 3.2 0.00 0.00 0.00 97 1019.0
20260502113346 10 78 3.2 4.8 0.00 0.00 0.00 97 1018.8
20260502112845 10 26 1.6 3.2 0.00 0.00 0.00 97 1018.7
20260502112342 10 304 0.0 3.2 0.00 0.00 0.00 97 1018.7
20260502111839 10 101 0.0 3.2 0.00 0.00 0.00 97 1018.8
20260502111336 10 89 0.0 3.2 0.00 0.00 0.00 96 1018.6
20260502110834 10 46 1.6 3.2 0.00 0.00 0.00 96 1018.7
20260502110332 10 63 1.6 3.2 0.00 0.00 0.00 96 1018.6
20260502105829 10 22 0.0 1.6 0.00 0.00 0.00 96 1018.4
20260502105326 10 116 0.0 3.2 0.00 0.00 0.00 96 1018.5
20260502104823 10 55 1.6 3.2 0.00 0.00 0.00 96 1018.4
20260502104321 10 33 1.6 3.2 0.00 0.00 0.00 96 1018.2
20260502103818 10 107 4.8 4.8 0.00 0.00 0.00 96 1018.4
20260502103315 10 32 0.0 3.2 0.00 0.00 0.00 96 1018.5
20260502102813 10 350 0.0 1.6 0.00 0.00 0.00 96 1018.2
20260502102308 10 60 0.0 3.2 0.00 0.00 0.00 96 1018.3
20260502101807 10 84 1.6 3.2 0.00 0.00 0.00 96 1018.1
20260502101304 10 269 0.0 3.2 0.00 0.00 0.00 96 1018.0
20260502100802 10 78 3.2 3.2 0.00 0.00 0.00 96 1017.8
20260502100301 10 56 0.0 3.2 0.00 0.00 0.00 96 1017.7
20260502091235 10 107 0.0 3.2 0.00 0.00 0.00 95 1016.9
20260502090732 10 55 3.2 3.2 0.00 0.00 0.00 95 1016.7
20260502090229 10 89 0.0 3.2 0.00 0.00 0.00 95 1016.7
20260502071130 12 43 0.0 6.4 0.00 0.00 0.00 91 1016.9
20260502070628 12 59 4.8 6.4 0.00 0.00 0.00 91 1016.9
20260502070125 12 65 1.6 8.0 0.00 0.00 0.00 91 1016.8
20260502065624 12 41 3.2 9.7 0.00 0.00 0.00 91 1016.7
20260502065121 12 82 3.2 3.2 0.00 0.00 0.00 91 1016.6
20260502064620 12 73 3.2 6.4 0.00 0.00 0.00 91 1016.6
20260502064116 12 87 4.8 11.3 0.00 0.00 0.00 91 1016.5
20260502063614 12 56 3.2 4.8 0.00 0.00 0.00 91 1016.6
20260502063111 12 48 3.2 4.8 0.00 0.00 0.00 91 1016.5
20260502062608 12 30 3.2 9.7 0.00 0.00 0.00 91 1016.4
20260502062106 12 40 6.4 9.7 0.00 0.00 0.00 91 1016.6
20260502061604 12 51 4.8 8.0 0.00 0.00 0.00 91 1016.4
20260502061101 12 40 6.4 9.7 0.00 0.00 0.00 92 1016.5
20260502060556 12 29 9.7 9.7 0.00 0.00 0.00 92 1016.7
20260502060053 12 33 4.8 8.0 0.00 0.00 0.00 92 1016.6
20260502055550 12 93 3.2 6.4 0.00 0.00 0.00 93 1016.6
20260502055049 12 84 1.6 8.0 0.00 0.00 0.00 93 1016.6
20260502054548 12 84 4.8 4.8 0.00 0.00 0.00 93 1016.5
20260502054044 12 61 9.7 11.3 0.00 0.00 0.00 93 1016.5
20260502053541 12 94 0.0 12.9 0.00 0.00 0.00 93 1016.5
20260502053039 12 78 6.4 8.0 0.00 0.00 0.00 93 1016.4
20260502052537 12 36 9.7 9.7 0.00 0.00 0.00 94 1016.6
20260502052035 12 91 3.2 9.7 0.00 0.00 0.00 93 1016.6
20260502051533 12 77 1.6 6.4 0.00 0.00 0.00 93 1016.7
20260502051030 12 24 1.6 8.0 0.00 0.00 0.00 94 1016.5
20260502050526 12 21 6.4 9.7 0.00 0.00 0.00 94 1016.6
20260502050023 12 74 8.0 8.0 0.00 0.00 0.00 94 1016.6
20260502045520 12 88 3.2 6.4 0.00 8.97 8.97 94 1016.6
20260502045017 12 82 0.0 6.4 0.00 8.97 8.97 94 1016.4
20260502044513 12 74 4.8 8.0 0.00 8.97 8.97 94 1016.5
20260502044010 12 30 4.8 9.7 0.00 8.97 8.97 95 1016.3
20260502043508 12 8 3.2 6.4 0.00 8.97 8.97 95 1016.3
20260502043003 12 37 3.2 9.7 0.00 8.97 8.97 95 1016.3
20260502042459 12 52 4.8 6.4 0.00 8.97 8.97 95 1016.4
20260502041956 12 139 1.6 8.0 0.00 8.97 8.97 95 1016.4
20260502041454 12 49 9.7 9.7 0.00 8.97 8.97 96 1016.6
20260502040951 12 104 3.2 9.7 0.00 8.97 8.97 96 1016.6
20260502040447 12 235 1.6 4.8 0.00 8.97 8.97 96 1016.8
20260502035944 12 38 0.0 4.8 0.00 8.97 8.97 96 1016.5
20260502035440 12 46 4.8 8.0 0.00 8.97 8.97 96 1016.4
20260502034938 12 294 1.6 4.8 0.00 8.97 8.97 96 1016.4
20260502034436 12 72 3.2 4.8 0.00 8.97 8.97 96 1016.3
20260502033935 12 329 1.6 8.0 0.00 8.97 8.97 96 1016.2
20260502033431 12 303 0.0 6.4 0.00 8.97 8.97 96 1016.2
20260502032928 12 131 4.8 6.4 0.00 8.97 8.97 96 1016.2
20260502032425 12 87 4.8 8.0 0.00 8.97 8.97 96 1016.2
20260502031922 12 4 4.8 4.8 0.00 8.97 8.97 96 1016.0
20260502031421 12 83 3.2 3.2 0.00 8.97 8.97 96 1015.8
20260502030918 12 77 3.2 9.7 0.00 8.97 8.97 96 1015.6
20260502030416 12 57 4.8 8.0 0.00 8.97 8.97 96 1015.7
20260502025914 12 62 6.4 9.7 0.00 8.97 8.97 96 1015.4
20260502025410 12 43 6.4 6.4 0.00 8.97 8.97 97 1015.0
20260502024909 12 55 6.4 6.4 0.00 8.97 8.97 97 1015.0
20260502024406 12 83 3.2 6.4 0.05 8.97 8.97 97 1015.1
20260502023904 12 83 4.8 4.8 0.05 8.97 8.97 97 1015.2
20260502023401 12 50 1.6 6.4 0.18 8.94 8.94 97 1015.2
20260502022859 12 72 0.0 11.3 0.30 8.94 8.94 96 1015.0
20260502022355 12 89 6.4 11.3 0.30 8.92 8.92 96 1014.8
20260502021852 12 73 0.0 4.8 0.23 8.89 8.89 96 1015.1
20260502021349 12 95 3.2 4.8 0.36 8.86 8.86 96 1015.0
20260502020847 12 8 0.0 6.4 0.36 8.84 8.84 96 1015.1
20260502020344 12 74 4.8 4.8 0.43 8.81 8.81 96 1014.8
20260502015841 12 75 4.8 4.8 0.36 8.76 8.76 96 1015.1
20260502015338 12 89 0.0 9.7 0.36 8.74 8.74 96 1014.7
20260502014835 12 73 4.8 8.0 0.79 8.71 8.71 96 1014.3
20260502014332 13 93 4.8 14.5 0.71 8.66 8.66 96 1014.2
20260502013828 13 80 4.8 8.0 0.36 8.56 8.56 96 1014.0
20260502013324 13 350 3.2 6.4 0.36 8.53 8.53 96 1013.9
20260502012821 13 259 3.2 8.0 0.30 8.51 8.51 96 1014.0
20260502012319 13 65 4.8 4.8 0.23 8.46 8.46 96 1014.4
20260502011816 13 89 0.0 6.4 0.13 8.43 8.43 96 1014.8
20260502011312 13 131 3.2 6.4 0.05 8.43 8.43 96 1014.5
20260502010809 13 187 0.0 4.8 0.05 8.41 8.41 96 1014.0
20260502010305 13 323 0.0 8.0 0.05 8.41 8.41 96 1013.4
20260502005802 13 14 0.0 17.7 0.05 8.41 8.41 96 1013.0
20260502005300 13 331 3.2 12.9 0.13 8.41 8.41 97 1012.7
20260502004757 13 47 6.4 8.0 0.18 8.41 8.41 97 1012.8
20260502004253 13 55 4.8 6.4 0.23 8.38 8.38 97 1013.4
20260502003751 13 104 6.4 8.0 0.23 8.36 8.36 97 1013.8
20260502003248 14 20 0.0 3.2 0.30 8.33 8.33 97 1013.8
20260502002743 13 38 1.6 4.8 0.36 8.33 8.33 97 1013.7
20260502002242 13 234 3.2 4.8 0.30 8.28 8.28 97 1013.4
20260502001738 13 37 1.6 4.8 0.23 8.26 8.26 96 1013.3
20260502001237 13 48 1.6 6.4 0.30 8.23 8.23 96 1013.2
20260502000734 13 18 3.2 8.0 0.30 8.23 8.23 96 1012.9
20260502000233 13 57 6.4 6.4 0.30 8.18 8.18 96 1012.7
20260501235732 14 68 4.8 8.0 0.23 8.15 8.15 96 1012.8
20260501235229 14 1 1.6 8.0 0.23 8.15 8.15 96 1012.6
20260501234725 14 105 3.2 9.7 0.18 8.10 8.10 96 1012.8
20260501234222 14 27 4.8 4.8 0.18 8.10 8.10 96 1012.3
20260501233720 14 50 4.8 6.4 0.23 8.08 8.08 96 1012.6
20260501233217 14 7 1.6 6.4 0.23 8.05 8.05 96 1012.4
20260501232712 14 76 1.6 6.4 0.43 8.03 8.03 96 1012.3
20260501232210 14 107 4.8 6.4 0.71 8.00 8.00 95 1012.3
20260501231708 14 85 3.2 9.7 1.27 7.92 7.92 95 1012.6
20260501231205 14 92 8.0 9.7 0.66 7.80 7.80 95 1012.4
20260501230704 14 72 3.2 9.7 0.05 7.70 7.70 95 1012.6
20260501230202 14 138 1.6 8.0 0.00 7.70 7.70 95 1012.7
20260501225659 14 333 0.0 6.4 0.00 7.70 7.70 94 1011.7
20260501225155 14 96 11.3 14.5 0.00 7.70 7.70 94 1010.5
20260501224652 14 85 4.8 20.9 0.00 7.70 7.70 94 1010.4
20260501224149 14 105 4.8 17.7 0.00 7.70 7.70 95 1010.8
20260501223646 15 63 8.0 12.9 0.00 7.70 7.70 95 1010.9
20260501223143 15 104 4.8 11.3 0.00 7.70 7.70 95 1011.1
20260501222638 15 33 6.4 8.0 0.13 7.70 7.70 95 1011.0
20260501222135 15 64 3.2 9.7 0.05 7.67 7.67 95 1011.2
20260501221632 15 62 1.6 14.5 0.05 7.67 7.67 95 1011.7
20260501221130 15 10 3.2 9.7 0.05 7.67 7.67 95 1012.1
20260501220628 15 73 3.2 4.8 0.05 7.67 7.67 95 1012.7
20260501220124 15 44 1.6 9.7 0.13 7.67 7.67 95 1012.6
20260501215621 15 54 4.8 11.3 0.18 7.65 7.65 95 1012.5
20260501215116 15 58 6.4 6.4 0.30 7.65 7.65 95 1012.6
20260501214611 15 297 1.6 4.8 0.13 7.62 7.62 96 1012.5
20260501214107 15 38 3.2 9.7 0.00 7.59 7.59 96 1012.1
20260501213604 15 224 0.0 3.2 0.00 7.59 7.59 96 1012.3
20260501213100 15 249 1.6 4.8 0.00 7.59 7.59 96 1012.2
20260501212557 15 134 0.0 6.4 0.05 7.59 7.59 96 1012.1
20260501212054 15 33 8.0 9.7 0.18 7.59 7.59 96 1011.2
20260501211550 15 26 3.2 9.7 0.23 7.57 7.57 96 1010.8
20260501211049 15 103 3.2 6.4 0.30 7.57 7.57 96 1010.6
20260501210544 15 116 0.0 6.4 0.30 7.52 7.52 96 1010.5
20260501210041 15 18 1.6 11.3 0.23 7.49 7.49 96 1010.5
20260501205538 15 11 3.2 8.0 0.23 7.47 7.47 96 1011.4
20260501205036 15 66 0.0 8.0 0.23 7.47 7.47 96 1012.0
20260501204532 15 116 1.6 6.4 0.53 7.44 7.44 96 1011.0
20260501204028 15 77 1.6 6.4 0.43 7.39 7.39 96 1011.1
20260501203525 15 100 6.4 8.0 0.23 7.34 7.34 96 1011.0
20260501203022 15 110 4.8 4.8 0.23 7.34 7.34 96 1010.9
20260501202519 15 342 4.8 8.0 0.48 7.32 7.32 96 1010.6
20260501202015 15 80 3.2 8.0 0.43 7.26 7.26 96 1011.2
20260501201513 15 92 0.0 6.4 0.18 7.21 7.21 96 1010.9
20260501201009 16 43 3.2 9.7 0.18 7.19 7.19 96 1010.8
20260501200507 16 305 1.6 6.4 0.43 7.19 7.19 96 1010.9
20260501200004 16 27 3.2 11.3 0.23 7.14 7.14 96 1010.6
20260501195501 16 79 3.2 11.3 0.13 7.11 7.11 96 1010.4
20260501194956 16 43 0.0 3.2 0.00 7.09 7.09 96 1011.0
20260501194452 16 78 3.2 8.0 0.00 7.09 7.09 97 1010.7
20260501193948 16 61 3.2 4.8 0.05 7.09 7.09 97 1010.9
20260501193446 16 68 1.6 4.8 0.13 7.09 7.09 97 1010.5
20260501192944 16 118 0.0 4.8 0.13 7.09 7.09 97 1010.4
20260501192441 16 63 1.6 3.2 0.13 7.09 7.09 97 1010.1
20260501191938 16 40 3.2 6.4 0.18 7.06 7.06 97 1010.4
20260501191435 16 118 1.6 6.4 0.23 7.06 7.06 97 1010.5
20260501190932 16 87 4.8 6.4 0.30 7.04 7.04 97 1010.1
20260501190428 15 58 4.8 11.3 0.36 7.01 7.01 97 1009.9
20260501185929 15 96 3.2 14.5 0.53 6.99 6.99 96 1010.3
20260501185425 16 106 0.0 8.0 0.61 6.93 6.93 97 1010.6
20260501184921 16 14 4.8 11.3 0.48 6.88 6.88 96 1010.3
20260501184418 16 45 1.6 4.8 0.30 6.83 6.83 97 1010.9
20260501183912 16 105 3.2 4.8 0.43 6.81 6.81 96 1010.7
20260501183410 16 22 3.2 9.7 0.53 6.78 6.78 96 1009.5
20260501182906 16 83 11.3 16.1 0.18 6.71 6.71 96 1008.2
20260501182404 16 91 3.2 9.7 0.05 6.68 6.68 96 1009.2
20260501181900 16 112 1.6 9.7 0.05 6.68 6.68 96 1009.6
20260501181357 16 98 12.9 17.7 0.13 6.68 6.68 96 1009.2
20260501180855 16 332 1.6 4.8 0.13 6.68 6.68 96 1009.6
20260501180350 16 53 0.0 9.7 0.23 6.65 6.65 96 1010.2
20260501175848 16 71 3.2 6.4 0.18 6.63 6.63 96 1010.6
20260501175344 16 19 4.8 6.4 0.05 6.63 6.63 96 1010.6
20260501174841 16 41 6.4 8.0 0.05 6.60 6.60 96 1010.8
20260501174339 16 83 4.8 8.0 0.05 6.60 6.60 96 1011.4
20260501173837 16 32 0.0 4.8 0.00 6.60 6.60 96 1011.3
20260501173334 16 98 0.0 6.4 0.00 6.60 6.60 96 1011.3
20260501172829 16 38 6.4 9.7 0.00 6.60 6.60 97 1011.2
20260501172324 16 112 3.2 9.7 0.05 6.60 6.60 97 1011.2